FW1436 Weather Reports


time (UTC)temp
F
wind
direction
speed
knots
gust
knots
rain 1hr
in
rain 24hr
in
rain mn
in
humidity
%
barometer
mb
20260831030108 66 247 0.0 0.9 0.00 0.00 0.00 60 1014.1
20260831024616 65 270 0.0 0.0 0.00 0.00 0.00 61 1014.0
20260831023049 65 270 0.0 0.0 0.00 0.00 0.00 60 1013.9
20260831021547 67 260 0.0 0.9 0.00 0.00 0.00 60 1013.9
20260831020046 67 255 0.9 2.6 0.00 0.00 0.00 60 1013.9
20260831014545 65 236 0.0 0.0 0.00 0.00 0.00 62 1014.0
20260831013059 65 236 0.0 0.0 0.00 0.00 0.00 62 1013.9
20260831011540 66 236 0.0 0.0 0.00 0.00 0.00 61 1013.9
20260831010038 67 236 0.0 0.0 0.00 0.00 0.00 59 1014.0
20260831004537 67 179 0.0 0.9 0.00 0.00 0.00 59 1014.1
20260831003032 69 116 0.0 0.9 0.00 0.00 0.00 58 1014.0
20260831001529 69 116 0.0 0.9 0.00 0.00 0.00 58 1013.8
20260831000029 69 13 0.0 0.0 0.00 0.00 0.00 59 1013.8
20260830234526 69 13 0.0 0.0 0.00 0.00 0.00 59 1013.8
20260830233025 70 300 0.0 0.0 0.00 0.00 0.00 58 1013.7
20260830231531 70 300 0.0 0.9 0.00 0.00 0.00 57 1013.6
20260830230024 70 300 0.0 0.0 0.00 0.00 0.00 58 1013.6
20260830224519 71 300 0.0 0.0 0.00 0.00 0.00 56 1013.4
20260830223016 73 264 0.0 0.9 0.00 0.00 0.00 54 1013.4
20260830221523 74 270 0.0 0.0 0.00 0.00 0.00 51 1013.3
20260830220010 74 270 0.0 1.7 0.00 0.00 0.00 51 1013.3
20260830214509 75 236 0.0 0.0 0.00 0.00 0.00 52 1013.3
20260830213008 76 236 0.0 0.0 0.00 0.00 0.00 49 1013.3
20260830211508 76 238 0.0 0.9 0.00 0.00 0.00 50 1013.2
20260830210007 76 98 0.0 0.9 0.00 0.00 0.00 49 1013.0
20260830204509 77 98 0.0 1.7 0.00 0.00 0.00 48 1012.9
20260830203020 78 276 0.0 0.9 0.00 0.00 0.00 47 1012.8
20260830201506 79 277 0.0 0.9 0.00 0.00 0.00 46 1012.8
20260830200005 80 269 0.0 3.5 0.00 0.00 0.00 45 1012.5
20260830194506 80 296 0.9 3.5 0.00 0.00 0.00 43 1012.3
20260830193004 81 285 0.0 3.5 0.00 0.00 0.00 40 1012.0
20260830191504 82 282 0.0 2.6 0.00 0.00 0.00 38 1011.9
20260830190007 83 221 0.9 5.2 0.00 0.00 0.00 36 1011.8
20260830184501 84 262 1.7 7.0 0.00 0.00 0.00 33 1011.7
20260830183001 85 258 1.7 7.0 0.00 0.00 0.00 31 1011.5
20260830181620 87 146 1.7 7.8 0.00 0.00 0.00 31 1011.5
20260830180104 87 164 1.7 9.6 0.00 0.00 0.00 30 1011.4
20260830180000 87 271 1.7 9.6 0.00 0.00 0.00 30 1011.4
20260830174608 88 241 1.7 8.7 0.00 0.00 0.00 30 1011.4
20260830173110 88 258 1.7 13.9 0.00 0.00 0.00 29 1011.4
20260830171600 89 224 0.9 8.7 0.00 0.00 0.00 29 1011.4
20260830170055 89 255 2.6 8.7 0.00 0.00 0.00 29 1011.4
20260830164612 89 278 1.7 10.4 0.00 0.00 0.00 29 1011.4
20260830163107 89 281 4.3 10.4 0.00 0.00 0.00 29 1011.3
20260830161553 89 240 3.5 10.4 0.00 0.00 0.00 29 1011.3
20260830160051 89 242 3.5 9.6 0.00 0.00 0.00 29 1011.4
20260830154553 90 210 3.5 13.0 0.00 0.00 0.00 29 1011.4
20260830153047 90 278 2.6 7.0 0.00 0.00 0.00 29 1011.4
20260830151547 89 98 1.7 10.4 0.00 0.00 0.00 30 1011.7
20260830150044 89 288 2.6 10.4 0.00 0.00 0.00 31 1011.8
20260830144552 89 236 1.7 7.0 0.00 0.00 0.00 30 1011.8
20260830143038 89 274 3.5 8.7 0.00 0.00 0.00 31 1012.1
20260830141535 88 158 2.6 13.0 0.00 0.00 0.00 31 1012.2
20260830140037 88 328 4.3 13.0 0.00 0.00 0.00 31 1012.4
20260830134532 88 309 3.5 10.4 0.00 0.00 0.00 31 1012.7
20260830133029 87 264 6.1 12.2 0.00 0.00 0.00 31 1012.6
20260830131526 87 228 2.6 8.7 0.00 0.00 0.00 33 1012.9
20260830130025 87 202 1.7 9.6 0.00 0.00 0.00 34 1013.1
20260830124522 85 265 3.5 11.3 0.00 0.00 0.00 34 1013.2
20260830123018 85 302 5.2 10.4 0.00 0.00 0.00 34 1013.4
20260830121517 84 263 4.3 12.2 0.00 0.00 0.00 35 1013.5
20260830120013 84 339 0.9 11.3 0.00 0.00 0.00 35 1013.6
20260830114512 83 167 2.6 7.0 0.00 0.00 0.00 36 1013.7
20260830111504 82 291 2.6 9.6 0.00 0.00 0.00 36 1014.1
20260830110003 82 252 2.6 7.0 0.00 0.00 0.00 34 1014.2
20260830104603 82 188 3.5 7.8 0.00 0.00 0.00 35 1014.4
20260830103058 80 281 0.9 6.1 0.00 0.00 0.00 35 1014.5
20260830101559 80 115 0.0 2.6 0.00 0.00 0.00 36 1014.5
20260830100056 78 264 0.0 3.5 0.00 0.00 0.00 36 1014.4
20260830094555 76 124 2.6 6.1 0.00 0.00 0.00 38 1014.4
20260830093046 75 135 1.7 5.2 0.00 0.00 0.00 38 1014.5
20260830091542 74 149 0.9 3.5 0.00 0.00 0.00 41 1014.6
20260830090044 73 115 0.9 3.5 0.00 0.00 0.00 42 1014.7
20260830084539 72 94 0.9 1.7 0.00 0.00 0.00 43 1014.7
20260830083058 71 104 0.0 3.5 0.00 0.00 0.00 44 1014.6
20260830081537 70 124 0.0 3.5 0.00 0.00 0.00 47 1014.6
20260830080036 68 103 1.7 5.2 0.00 0.00 0.00 47 1014.6
20260830074545 68 130 0.9 3.5 0.00 0.00 0.00 47 1014.7
20260830073035 68 115 0.0 1.7 0.00 0.00 0.00 47 1014.6
20260830071532 68 109 0.0 0.9 0.00 0.00 0.00 51 1014.6
20260830070030 66 110 0.0 0.0 0.00 0.00 0.00 54 1014.4
20260830064529 64 110 0.0 0.0 0.00 0.00 0.00 59 1014.3
20260830063027 63 110 0.0 0.0 0.00 0.00 0.00 59 1014.1
20260830061521 0 0.0 0.0 0.00 0.00 0.00 1014.3
20260830060017 0 0.0 0.0 0.00 0.00 0.00 1014.2
20260830054516 0 0.0 0.0 0.00 0.00 0.00 1014.3
20260830053008 0 0.0 0.0 0.00 0.00 0.00 1014.2
20260830051502 0 105 0.0 0.0 0.00 0.00 0.00 1014.3
20260830050106 58 110 0.0 0.0 0.00 0.00 0.00 63 1014.3
20260830044600 60 110 0.0 0.0 0.00 0.00 0.00 59 1014.2
20260830044501 60 110 0.0 0.0 0.00 0.00 0.00 60 1014.1
20260830043058 60 110 0.0 0.9 0.00 0.00 0.00 57 1014.1
20260830041557 59 110 0.0 0.0 0.00 0.00 0.00 58 1014.0
20260830040058 58 110 0.0 0.0 0.00 0.00 0.00 61 1014.0
20260830034559 59 110 0.0 0.0 0.00 0.00 0.00 61 1014.0
20260830033054 60 110 0.0 0.0 0.00 0.00 0.00 60 1014.1
20260830031548 60 110 0.0 0.0 0.00 0.00 0.00 60 1014.1